Temp
-3 -3 -3 -4 -4 -4 -5 -5 -5 -5 -6 -6 -7 -7 -7 -7 -7 -7 -7 -8 -8 -8 -8 -8 -8 -8 -8 -8 -8 -8 -8 -8 -8 -8 -8 -7 -7 -7 -7 -7 -8 -9 -9 -8 -8 -8 -8 -8 -8 -8 -8 -8 -9 -9 -9 -9 -9 -9 -9 -9 -9 -9 -8
-5 -5 -5 -5 -5 -5 -5 -5 -6 -6 -6 -7 -7 -7 -7 -7 -7 -8 -8 -8 -8 -8 -8 -8 -8 -8 -8 -8 -8 -9 -8 -8 -8 -8 -8 -8 -8 -8 -8 -7 -8 -9 -9 -9 -9 -8 -8 -8 -8 -8 -8 -9 -9 -9 -9 -10 -9 -9 -9 -9 -9 -9 -9
-7 -6 -6 -6 -6 -6 -6 -6 -6 -7 -7 -7 -7 -7 -7 -7 -7 -8 -8 -8 -8 -8 -8 -8 -8 -8 -8 -8 -9 -9 -9 -9 -9 -9 -8 -8 -8 -8 -8 -8 -8 -9 -9 -10 -9 -9 -9 -9 -8 -8 -8 -9 -9 -10 -10 -10 -10 -10 -10 -9 -9 -9 -9
-9 -8 -8 -7 -7 -6 -6 -7 -7 -7 -7 -7 -7 -7 -7 -8 -8 -8 -8 -8 -8 -8 -8 -9 -9 -9 -9 -9 -9 -9 -9 -9 -9 -9 -9 -9 -8 -8 -8 -8 -8 -8 -9 -9 -10 -9 -9 -9 -9 -9 -9 -9 -10 -10 -10 -10 -10 -10 -10 -10 -10 -10 -10
-11 -10 -10 -9 -8 -8 -7 -8 -8 -8 -8 -8 -8 -8 -8 -8 -8 -8 -8 -9 -9 -9 -9 -9 -9 -9 -9 -9 -9 -9 -9 -9 -9 -9 -9 -9 -9 -9 -9 -9 -9 -9 -9 -9 -10 -10 -9 -9 -9 -9 -9 -9 -10 -10 -10 -10 -10 -10 -10 -10 -10 -10 -10
-13 -12 -11 -11 -10 -9 -9 -8 -8 -8 -8 -8 -8 -8 -8 -8 -9 -9 -9 -9 -9 -9 -9 -9 -9 -9 -9 -9 -9 -9 -9 -9 -9 -9 -9 -9 -9 -9 -9 -9 -9 -9 -9 -9 -10 -10 -10 -9 -9 -9 -9 -10 -10 -10 -10 -10 -10 -10 -10 -10 -10 -10 -9
-15 -14 -14 -13 -12 -11 -10 -9 -9 -9 -9 -9 -9 -9 -9 -9 -9 -9 -9 -9 -9 -9 -9 -9 -9 -9 -9 -9 -9 -9 -10 -10 -10 -10 -10 -10 -9 -9 -9 -9 -9 -9 -9 -10 -10 -10 -10 -10 -9 -9 -10 -10 -10 -10 -10 -10 -10 -10 -10 -10 -10 -10 -9
-16 -16 -15 -15 -14 -13 -12 -11 -10 -9 -9 -9 -9 -9 -9 -9 -9 -10 -10 -10 -10 -10 -10 -10 -10 -10 -10 -10 -10 -10 -10 -10 -10 -10 -10 -10 -10 -10 -10 -10 -10 -10 -10 -10 -10 -10 -10 -10 -10 -10 -10 -10 -10 -10 -10 -10 -10 -10 -10 -9 -10 -10 -9
-18 -17 -17 -16 -16 -15 -13 -12 -11 -10 -10 -10 -10 -10 -10 -10 -10 -10 -10 -10 -10 -10 -10 -10 -10 -10 -10 -10 -10 -10 -10 -10 -10 -10 -10 -10 -10 -10 -11 -11 -10 -11 -11 -11 -11 -11 -11 -11 -11 -10 -10 -11 -11 -11 -11 -10 -10 -10 -10 -10 -10 -10 -9
-18 -18 -17 -17 -16 -16 -14 -13 -12 -11 -10 -10 -10 -10 -10 -10 -10 -10 -10 -10 -10 -10 -10 -10 -10 -10 -10 -10 -10 -10 -10 -10 -10 -10 -10 -10 -10 -11 -11 -11 -11 -11 -11 -11 -11 -11 -11 -12 -12 -11 -11 -11 -11 -11 -10 -10 -10 -10 -10 -10 -10 -10 -9
-19 -18 -18 -17 -17 -16 -15 -14 -13 -12 -11 -10 -10 -10 -10 -10 -10 -11 -11 -11 -11 -11 -11 -11 -11 -11 -11 -11 -11 -11 -11 -11 -10 -10 -10 -10 -11 -11 -11 -11 -11 -11 -11 -11 -11 -11 -12 -12 -12 -11 -11 -11 -11 -11 -10 -10 -10 -10 -10 -10 -11 -11 -10
-19 -19 -19 -18 -17 -16 -15 -14 -13 -12 -12 -11 -10 -10 -10 -10 -10 -11 -11 -11 -11 -11 -11 -11 -11 -11 -11 -11 -11 -11 -11 -11 -11 -10 -10 -10 -10 -10 -11 -11 -11 -11 -11 -11 -11 -12 -12 -12 -12 -12 -11 -11 -11 -11 -10 -10 -10 -10 -10 -10 -11 -11 -10
-20 -19 -19 -18 -17 -16 -15 -15 -14 -13 -12 -11 -11 -10 -10 -10 -10 -11 -11 -11 -11 -11 -11 -11 -11 -12 -12 -12 -12 -12 -12 -12 -11 -11 -11 -10 -10 -10 -10 -10 -11 -11 -11 -11 -11 -12 -12 -12 -12 -12 -11 -11 -11 -11 -10 -10 -10 -10 -10 -10 -10 -10 -10
-20 -19 -19 -18 -18 -17 -16 -15 -14 -13 -12 -11 -11 -10 -10 -10 -10 -11 -11 -11 -11 -11 -11 -11 -12 -12 -12 -12 -12 -12 -12 -12 -12 -12 -12 -11 -11 -10 -10 -10 -10 -10 -11 -11 -11 -11 -11 -11 -11 -11 -11 -10 -10 -10 -10 -10 -10 -10 -10 -10 -10 -10 -10
-20 -20 -19 -19 -18 -17 -17 -16 -15 -13 -12 -11 -11 -10 -10 -10 -10 -11 -11 -11 -11 -12 -12 -12 -12 -12 -12 -12 -13 -13 -13 -13 -13 -13 -12 -12 -12 -11 -11 -11 -10 -10 -11 -11 -11 -11 -11 -11 -11 -11 -11 -10 -10 -10 -10 -10 -10 -10 -10 -10 -10 -10 -10
-20 -20 -20 -19 -19 -18 -17 -16 -15 -13 -12 -11 -11 -11 -10 -10 -10 -11 -11 -12 -12 -12 -12 -12 -12 -12 -12 -13 -13 -13 -13 -13 -13 -13 -13 -13 -13 -12 -12 -11 -11 -11 -11 -11 -11 -11 -11 -11 -11 -11 -11 -11 -10 -10 -10 -10 -10 -10 -10 -10 -11 -11 -11
-20 -20 -20 -19 -19 -18 -17 -16 -15 -13 -12 -12 -12 -11 -11 -11 -11 -11 -12 -12 -12 -12 -12 -12 -12 -13 -13 -13 -13 -13 -13 -12 -12 -13 -13 -13 -13 -13 -13 -12 -12 -11 -11 -10 -10 -11 -11 -11 -11 -11 -11 -11 -10 -10 -10 -10 -11 -11 -11 -11 -11 -11 -12
-20 -20 -19 -19 -18 -17 -17 -15 -14 -14 -13 -12 -12 -11 -11 -11 -11 -12 -12 -12 -12 -12 -12 -13 -13 -13 -13 -13 -13 -13 -13 -12 -12 -12 -13 -13 -13 -13 -13 -13 -13 -12 -11 -11 -10 -10 -10 -10 -11 -11 -11 -11 -10 -10 -10 -10 -10 -10 -11 -11 -11 -12 -12
-20 -20 -19 -18 -18 -17 -16 -15 -15 -14 -13 -13 -12 -12 -12 -12 -12 -12 -13 -13 -13 -13 -13 -13 -13 -13 -13 -13 -14 -13 -13 -12 -12 -12 -12 -13 -13 -13 -13 -13 -13 -13 -13 -12 -11 -10 -10 -10 -10 -10 -10 -10 -10 -10 -9 -10 -10 -10 -10 -11 -11 -12 -12
-20 -19 -19 -18 -17 -17 -16 -15 -15 -14 -14 -13 -12 -12 -12 -12 -12 -12 -13 -13 -13 -13 -13 -14 -14 -14 -13 -13 -13 -13 -13 -12 -12 -12 -12 -12 -13 -13 -13 -13 -13 -14 -13 -12 -12 -11 -11 -10 -10 -10 -10 -10 -10 -10 -9 -9 -9 -9 -10 -10 -11 -11 -12
-20 -19 -19 -18 -17 -16 -15 -15 -15 -15 -14 -13 -13 -12 -12 -12 -12 -12 -13 -13 -13 -13 -14 -14 -14 -14 -13 -13 -13 -12 -12 -12 -12 -12 -12 -12 -13 -13 -13 -13 -14 -14 -14 -13 -12 -12 -12 -11 -11 -10 -10 -10 -9 -9 -9 -9 -9 -9 -9 -9 -10 -10 -11
-20 -19 -18 -18 -16 -16 -16 -15 -15 -15 -14 -14 -14 -13 -13 -12 -12 -12 -13 -13 -13 -13 -14 -14 -14 -14 -14 -13 -12 -12 -12 -12 -11 -11 -11 -12 -12 -12 -12 -13 -13 -14 -14 -13 -12 -12 -12 -12 -12 -11 -10 -10 -9 -9 -9 -9 -9 -9 -9 -9 -9 -9 -10
-19 -19 -18 -17 -16 -16 -16 -16 -16 -15 -15 -15 -14 -14 -13 -13 -13 -12 -12 -13 -13 -13 -13 -14 -14 -14 -14 -13 -12 -12 -12 -11 -11 -11 -11 -11 -11 -11 -11 -12 -13 -13 -13 -13 -12 -12 -12 -12 -12 -11 -11 -10 -10 -10 -9 -9 -9 -9 -9 -9 -9 -9 -9
-19 -19 -18 -17 -16 -16 -16 -16 -16 -16 -16 -15 -15 -14 -14 -13 -13 -13 -12 -13 -13 -13 -13 -13 -14 -14 -13 -13 -12 -12 -12 -11 -11 -11 -11 -10 -10 -10 -11 -11 -12 -12 -13 -12 -12 -12 -11 -11 -11 -11 -11 -11 -10 -9 -9 -8 -9 -9 -9 -9 -9 -9 -9
-19 -18 -18 -17 -17 -16 -16 -16 -16 -16 -16 -16 -16 -15 -15 -14 -14 -13 -13 -13 -13 -13 -13 -13 -13 -13 -13 -12 -12 -12 -12 -12 -11 -11 -11 -10 -10 -10 -10 -11 -11 -11 -11 -12 -11 -11 -11 -11 -11 -10 -10 -10 -10 -9 -9 -9 -9 -9 -9 -9 -9 -9 -9
-19 -18 -18 -17 -17 -17 -16 -16 -16 -16 -17 -17 -16 -16 -16 -15 -15 -14 -14 -13 -13 -13 -13 -13 -13 -13 -13 -12 -12 -12 -12 -12 -11 -11 -11 -10 -10 -10 -10 -10 -11 -10 -10 -10 -10 -10 -10 -10 -10 -10 -10 -10 -10 -10 -10 -10 -10 -9 -9 -9 -9 -9 -9
-19 -18 -18 -18 -17 -16 -16 -16 -16 -17 -17 -17 -17 -17 -17 -17 -16 -16 -15 -14 -13 -13 -13 -13 -13 -13 -13 -13 -12 -12 -12 -12 -11 -11 -11 -10 -10 -10 -10 -10 -10 -10 -10 -10 -9 -9 -9 -9 -9 -9 -10 -10 -10 -10 -10 -10 -10 -9 -9 -9 -9 -9 -9
-19 -18 -18 -17 -17 -16 -16 -16 -16 -16 -17 -17 -17 -17 -17 -17 -17 -17 -17 -16 -14 -13 -13 -13 -13 -13 -13 -13 -12 -12 -12 -12 -11 -11 -11 -10 -10 -10 -9 -9 -9 -9 -9 -9 -9 -9 -9 -9 -9 -9 -9 -9 -9 -9 -9 -9 -10 -9 -9 -9 -9 -9 -9
-18 -18 -17 -16 -16 -16 -16 -16 -16 -16 -16 -16 -16 -16 -17 -17 -17 -17 -17 -16 -15 -14 -13 -13 -13 -13 -13 -13 -12 -12 -12 -11 -11 -11 -10 -10 -10 -9 -9 -9 -9 -9 -9 -9 -9 -9 -8 -8 -9 -9 -9 -9 -9 -9 -9 -9 -9 -9 -9 -9 -9 -9 -9
-17 -17 -16 -15 -15 -15 -16 -16 -15 -15 -15 -15 -14 -14 -15 -15 -16 -16 -16 -16 -15 -14 -13 -13 -13 -13 -13 -13 -12 -12 -11 -11 -10 -10 -10 -10 -9 -9 -9 -9 -9 -9 -9 -9 -9 -8 -8 -8 -8 -9 -9 -9 -9 -9 -9 -9 -8 -8 -8 -9 -9 -8 -8
-17 -16 -16 -15 -15 -15 -15 -15 -15 -15 -15 -14 -13 -13 -13 -13 -14 -14 -14 -15 -15 -14 -13 -13 -13 -13 -12 -12 -12 -11 -11 -11 -10 -10 -9 -9 -9 -9 -9 -9 -9 -9 -9 -8 -8 -8 -9 -9 -9 -9 -9 -9 -9 -9 -9 -8 -8 -8 -8 -9 -9 -9 -9
-17 -17 -16 -16 -15 -15 -14 -14 -14 -15 -14 -14 -13 -13 -12 -12 -12 -12 -13 -13 -14 -14 -13 -13 -13 -12 -12 -12 -11 -11 -11 -10 -10 -10 -10 -10 -10 -10 -9 -9 -9 -9 -9 -8 -8 -9 -9 -9 -9 -9 -9 -9 -8 -9 -9 -8 -9 -9 -8 -8 -9 -9 -9
-18 -18 -17 -16 -16 -15 -14 -13 -13 -14 -14 -13 -12 -12 -12 -12 -12 -11 -12 -12 -13 -13 -13 -13 -12 -12 -12 -12 -11 -11 -11 -11 -10 -10 -10 -10 -10 -10 -10 -9 -9 -9 -9 -9 -9 -9 -9 -9 -9 -9 -9 -9 -9 -9 -9 -9 -9 -9 -9 -9 -9 -9 -9
-19 -19 -18 -18 -17 -16 -14 -13 -12 -12 -12 -12 -12 -12 -12 -12 -12 -11 -11 -12 -13 -13 -13 -12 -12 -12 -12 -12 -12 -12 -11 -11 -11 -11 -11 -11 -11 -10 -10 -10 -10 -9 -9 -9 -9 -9 -9 -9 -9 -9 -9 -9 -9 -9 -9 -9 -9 -9 -9 -9 -9 -9 -9
-20 -19 -19 -18 -18 -17 -15 -14 -13 -13 -12 -12 -12 -12 -12 -12 -13 -14 -14 -13 -13 -13 -13 -13 -12 -12 -12 -12 -12 -12 -12 -11 -11 -11 -11 -10 -10 -10 -10 -10 -10 -10 -10 -10 -10 -10 -10 -10 -10 -10 -10 -10 -10 -10 -10 -9 -9 -9 -9 -9 -9 -9 -9
-20 -20 -19 -19 -18 -17 -17 -16 -15 -15 -14 -14 -14 -13 -13 -14 -15 -16 -16 -15 -15 -15 -14 -14 -14 -14 -13 -13 -12 -12 -12 -11 -11 -11 -11 -11 -11 -11 -11 -11 -11 -11 -11 -11 -11 -11 -11 -11 -11 -11 -11 -11 -11 -10 -10 -10 -10 -10 -10 -10 -10 -9 -9
Height
738 735 732 731 729 727 726 725 725 725 725 725 724 724 724 724 725 725 723 724 724 724 725 725 724 724 724 726 727 727 728 728 729 730 730 731 732 732 733 734 734 734 731 730 731 732 732 733 734 733 733 732 732 732 732 731 731 730 729 728 727 726 725
739 736 733 730 727 725 723 722 721 721 720 719 718 718 718 719 720 719 718 719 718 719 720 720 720 720 721 722 723 722 724 724 725 726 726 727 728 728 729 730 730 731 730 728 728 730 730 731 732 731 730 730 730 729 730 729 728 728 727 726 725 724 723
739 736 732 728 725 722 720 718 717 716 715 714 713 712 712 712 713 713 713 713 713 714 715 716 715 715 717 719 719 718 719 720 721 722 722 722 724 725 725 726 727 728 728 726 726 727 728 729 729 728 728 728 728 728 728 727 726 726 725 724 723 722 721
738 735 732 728 724 720 717 714 713 712 711 710 709 707 706 706 707 707 707 707 707 708 710 710 710 710 712 714 714 714 715 716 717 718 719 719 720 721 722 723 724 724 725 725 724 724 726 726 727 726 726 726 726 726 726 725 725 724 723 722 721 720 719
734 732 729 726 722 718 714 711 710 708 706 705 704 702 700 700 701 701 701 701 701 703 704 704 705 706 708 709 709 709 710 712 713 714 715 715 716 717 719 720 721 722 722 723 722 722 723 724 724 724 723 724 724 724 723 723 723 722 721 720 719 718 717
730 727 724 721 718 715 711 708 706 703 701 700 699 697 695 694 695 695 695 695 695 696 698 699 699 701 703 704 704 704 706 707 709 710 711 712 712 714 716 717 718 719 720 720 720 720 721 722 722 721 721 721 722 722 721 721 720 720 719 718 716 715 715
726 722 719 716 712 709 706 703 700 698 696 694 693 691 689 689 689 689 688 689 689 691 692 693 694 696 697 698 699 700 702 703 705 706 707 709 710 711 712 713 714 716 717 717 717 718 718 719 719 719 719 719 720 720 720 719 718 717 716 716 715 713 712
722 717 713 710 707 703 700 697 694 691 689 688 686 684 683 683 683 683 682 683 683 685 686 687 689 690 692 693 694 696 698 699 701 703 704 705 707 708 709 710 711 712 713 714 714 715 715 716 717 717 716 717 718 718 717 717 717 716 715 714 713 712 711
719 714 708 704 701 697 694 690 686 684 683 681 679 678 677 677 677 676 676 677 677 679 680 682 683 685 687 689 690 692 693 695 696 698 699 701 703 705 706 707 708 709 710 711 711 711 713 714 714 714 714 715 715 715 715 716 716 715 713 712 711 710 709
713 709 704 699 694 691 688 684 680 678 676 674 673 672 670 669 669 669 670 670 671 673 674 676 678 680 682 684 686 687 689 691 693 694 695 697 699 700 702 703 705 706 706 707 708 708 709 711 711 711 712 712 712 713 714 714 714 713 712 711 710 708 707
708 704 700 695 689 685 681 677 674 672 670 668 667 665 664 662 662 662 663 664 666 667 669 671 673 676 678 679 681 683 685 687 689 690 692 694 695 696 697 699 701 702 703 704 704 705 706 707 707 708 709 710 710 711 712 712 712 712 711 710 710 708 707
705 700 696 691 685 680 675 671 669 666 664 661 659 658 656 655 655 655 656 658 660 662 665 667 669 671 673 675 677 679 681 683 685 687 689 690 691 692 693 694 696 697 699 700 701 701 703 703 704 705 707 708 708 709 710 710 710 710 710 709 709 708 706
700 695 691 686 680 675 670 666 663 661 658 654 652 650 649 648 648 648 649 651 654 657 660 662 665 667 669 671 673 675 677 680 682 684 685 687 688 688 689 690 692 693 695 696 697 698 699 699 701 702 703 704 706 707 708 708 708 708 708 708 707 707 705
695 691 687 682 677 671 666 662 658 655 651 647 645 644 643 642 641 641 643 645 649 652 655 658 660 662 665 667 669 671 673 676 678 680 682 683 684 684 685 686 688 689 691 692 694 695 695 696 698 699 700 702 705 706 706 706 706 707 707 706 706 705 704
691 686 681 677 672 667 661 657 653 649 645 641 639 638 637 635 635 635 637 640 643 647 650 653 656 658 661 663 665 667 670 673 675 677 678 679 680 681 682 683 684 686 688 689 690 691 692 693 696 697 699 701 703 704 704 704 705 705 706 705 705 704 703
687 682 676 672 667 662 656 651 648 644 640 637 635 633 632 630 630 631 632 635 639 642 645 649 651 654 657 659 661 664 667 669 671 673 674 676 677 678 679 679 681 683 685 686 687 688 689 692 694 696 697 699 701 701 702 703 704 704 704 705 704 703 702
682 677 672 666 662 657 651 646 643 640 636 633 630 628 627 627 626 627 628 631 635 638 641 644 647 650 653 655 658 660 663 666 668 668 670 672 674 675 676 677 678 680 682 683 685 686 687 690 692 693 695 697 698 699 700 702 702 702 703 704 703 703 701
677 672 667 662 657 653 647 642 639 636 632 629 626 625 624 624 624 624 626 628 631 635 638 641 643 646 649 651 654 657 659 662 664 665 666 668 670 672 672 673 675 678 679 681 682 684 685 687 689 690 692 694 695 696 698 699 699 699 701 702 702 702 701
673 668 663 657 652 648 644 639 635 632 628 625 623 621 621 621 621 622 623 626 629 632 635 637 640 643 646 648 651 654 656 658 660 661 662 663 665 667 668 669 672 675 677 678 680 681 682 684 686 687 689 691 692 694 694 695 695 697 698 699 700 701 702
670 664 659 653 647 643 640 636 632 628 625 623 621 619 619 620 619 620 621 624 627 629 632 634 637 640 643 645 648 650 653 654 656 657 658 660 661 662 662 665 670 673 675 676 677 678 680 681 683 685 686 688 689 690 691 692 693 694 695 696 697 699 700
666 661 655 649 643 640 637 633 629 625 623 621 619 618 617 618 618 618 619 622 624 626 628 631 634 637 640 642 645 647 649 650 652 653 655 656 656 657 660 664 667 670 672 674 675 677 678 680 681 682 683 684 685 686 688 689 690 691 692 693 695 696 698
663 657 652 646 641 637 633 630 627 624 621 620 618 617 616 616 616 617 618 619 621 623 625 628 631 633 636 639 642 643 645 646 648 649 651 651 652 655 659 662 664 666 669 671 672 674 676 677 679 679 680 681 682 683 684 686 687 688 689 691 692 694 695
659 654 648 642 638 634 630 627 624 622 620 619 617 616 614 614 615 615 616 617 619 621 623 626 628 631 634 637 639 640 641 643 644 645 646 647 649 652 656 659 660 663 665 667 668 670 672 673 675 676 676 677 678 680 681 683 684 686 687 688 690 691 693
656 651 645 639 634 630 627 624 622 620 619 617 616 615 613 613 613 613 614 615 617 619 621 623 626 629 632 634 636 637 638 639 640 641 642 644 646 649 652 655 657 659 661 663 665 666 667 668 670 671 672 674 675 677 679 680 682 683 685 686 688 689 691
653 648 643 638 633 628 624 622 619 617 616 615 615 613 612 612 612 612 612 613 614 616 618 621 624 627 629 631 632 634 635 636 637 637 639 641 643 645 648 651 653 655 657 659 660 662 663 664 666 667 669 670 672 674 676 678 680 682 683 685 686 688 689
651 646 641 636 630 625 621 619 617 615 614 613 612 612 611 611 610 610 611 612 612 614 616 619 622 624 626 628 629 631 632 633 634 634 636 638 640 642 644 646 649 651 653 654 656 657 659 660 662 664 666 668 670 672 674 675 677 679 681 682 684 686 687
648 643 638 633 627 622 618 616 614 612 611 611 610 610 609 609 609 609 609 610 611 613 615 617 620 622 624 625 627 629 630 630 631 632 633 634 636 638 640 642 645 647 649 651 652 654 656 658 660 662 664 666 668 669 671 673 675 677 679 680 682 684 685
645 640 634 628 622 618 615 613 611 610 609 608 608 608 608 608 608 608 608 609 611 612 614 616 619 620 622 624 625 626 627 628 628 629 630 631 633 635 637 639 641 644 646 648 650 652 654 656 658 660 662 663 665 667 669 671 673 675 677 678 680 682 683
643 637 631 625 619 615 613 611 608 607 606 606 606 606 606 606 606 606 607 608 611 613 614 616 618 619 621 622 623 624 624 625 625 625 626 628 630 632 634 636 638 640 643 645 647 649 651 653 655 657 659 661 663 665 667 669 672 674 675 677 679 680 681
640 633 628 623 617 613 611 608 605 605 605 604 604 603 603 604 604 605 606 607 610 612 613 614 616 618 619 621 622 622 622 621 621 622 623 625 627 629 632 634 635 637 640 642 644 646 648 650 652 654 657 659 661 664 666 668 670 672 674 675 677 678 679
637 631 626 622 616 611 608 605 603 603 603 602 601 601 601 602 603 604 605 607 609 611 612 613 614 616 618 619 620 620 620 619 618 618 620 622 624 627 629 631 633 635 637 640 642 644 646 648 650 652 655 657 660 662 665 667 669 671 672 674 676 677 678
637 630 625 620 616 610 605 602 601 601 601 601 600 599 599 600 600 602 604 606 608 610 611 612 613 615 616 618 618 618 618 617 616 616 618 621 623 625 627 630 632 635 636 639 641 644 646 648 650 652 654 657 659 661 664 666 668 669 671 672 674 676 677
636 632 627 622 617 611 605 601 601 601 600 599 599 598 598 598 598 599 602 604 607 610 610 612 613 614 615 616 616 616 616 616 616 617 619 621 623 626 628 630 633 635 637 639 641 644 646 648 651 653 655 657 659 661 663 665 667 668 669 671 672 674 676
636 634 631 626 620 614 608 604 602 601 599 597 596 596 597 597 597 598 601 604 607 609 610 611 613 614 614 615 615 615 615 615 617 619 621 623 625 627 629 632 634 636 638 640 642 644 646 648 651 653 655 657 659 661 663 664 666 667 669 670 671 672 674
642 638 635 631 625 619 614 610 606 603 601 598 597 597 597 598 600 601 603 606 608 610 610 611 612 613 613 614 615 615 616 617 619 621 623 624 626 628 631 633 635 637 639 641 642 644 646 648 651 653 655 657 659 660 662 663 665 667 668 669 670 670 672
647 642 637 633 628 624 620 616 613 609 606 605 604 602 601 603 605 607 608 609 611 611 611 612 613 614 614 615 616 617 618 619 621 623 624 626 628 630 631 633 635 637 639 641 642 644 646 649 651 652 654 656 658 660 661 662 664 665 667 668 669 669 670
Wind_Speed
36 34 32 30 29 28 28 28 28 28 30 33 34 34 34 35 34 35 35 35 35 34 34 34 34 34 35 33 32 32 32 31 32 31 29 28 28 27 27 26 20 11 10 16 18 18 19 19 19 19 19 18 17 17 15 16 16 16 16 17 20 23 25
34 33 32 31 30 30 29 28 28 29 31 32 33 33 33 34 34 35 35 34 34 35 34 34 34 34 34 32 32 33 32 32 31 31 30 29 29 28 28 28 25 17 10 12 17 19 20 20 19 20 19 16 15 16 15 15 16 16 17 18 19 20 22
37 35 34 33 32 31 30 30 30 31 32 32 33 33 33 34 35 35 35 35 35 35 34 34 34 34 33 31 32 33 33 32 31 31 31 30 30 29 29 29 28 23 15 13 15 17 19 19 19 19 19 16 15 15 15 16 17 17 18 18 19 20 21
42 39 37 35 34 34 33 32 31 31 32 33 33 33 33 34 35 37 37 36 36 35 34 34 34 34 33 31 32 32 32 31 31 31 31 30 29 29 28 28 28 26 22 17 14 15 18 19 18 19 18 16 14 15 15 16 16 17 17 18 19 20 21
46 43 41 40 39 36 34 32 31 31 32 33 33 33 33 34 36 37 38 38 37 36 35 35 35 34 32 32 32 32 31 30 30 30 30 30 29 29 28 27 27 27 25 22 17 16 18 18 18 19 18 16 15 16 16 15 15 16 16 18 18 19 19
47 45 44 44 43 40 37 35 33 33 34 34 34 33 33 34 36 37 38 38 37 37 36 36 36 35 33 33 33 32 31 30 30 30 29 29 28 28 27 27 26 26 25 24 22 20 18 18 18 19 19 18 15 14 15 16 16 16 17 17 18 19 17
47 46 45 45 45 45 44 42 39 37 35 35 34 33 33 34 36 37 37 38 37 37 37 36 36 35 34 34 34 33 32 30 30 30 29 29 27 26 26 26 26 26 25 24 22 20 19 18 18 18 19 18 15 13 14 15 15 16 16 16 16 18 17
47 48 48 46 45 45 45 45 44 42 38 36 35 33 33 34 35 36 37 37 37 36 36 36 37 36 35 35 35 34 33 32 31 29 29 29 28 26 25 24 23 24 25 24 21 19 18 17 16 18 18 17 14 12 14 15 13 14 15 14 15 16 17
48 49 49 48 45 44 43 43 44 42 38 36 35 34 34 35 36 36 36 36 35 35 36 36 35 35 35 35 35 34 34 33 33 32 30 29 28 27 26 24 23 23 22 21 18 17 16 14 14 17 17 16 15 14 14 15 13 12 13 14 15 17 16
48 47 46 46 46 45 43 42 42 40 38 37 36 35 35 35 36 36 36 35 34 33 34 34 34 34 34 35 35 35 33 31 31 32 31 30 30 30 28 25 23 22 22 20 17 16 15 11 12 17 18 17 17 15 14 14 14 12 12 12 13 16 14
45 44 44 44 45 44 43 42 40 39 39 40 40 40 38 36 35 35 35 34 33 32 31 32 32 32 33 33 33 33 30 26 28 31 30 29 30 31 31 29 26 23 22 21 18 17 16 13 14 18 20 19 18 16 14 14 13 11 10 9 8 9 9
43 44 44 43 43 43 42 41 39 37 38 39 41 42 41 37 35 34 35 34 33 32 30 29 30 31 31 31 31 31 29 27 27 29 30 30 30 30 30 31 31 28 25 23 20 18 18 18 19 19 20 21 19 17 16 15 13 11 10 9 8 7 9
43 43 42 41 42 43 43 42 40 38 37 38 40 41 40 38 34 33 34 33 32 32 30 29 28 28 28 30 30 30 30 29 28 28 29 31 31 31 30 29 30 30 29 28 25 21 22 24 22 21 23 24 20 17 15 14 14 13 11 11 10 11 14
41 41 41 41 42 43 43 41 40 39 37 37 38 38 39 39 34 31 33 34 33 32 31 30 29 27 27 28 28 29 29 29 29 28 29 31 30 30 29 28 28 28 28 29 29 27 28 28 26 25 26 25 20 17 17 15 15 14 12 12 12 13 15
42 43 43 42 42 43 43 42 41 39 37 35 35 35 36 36 32 29 31 33 34 33 33 32 31 29 28 27 27 28 27 27 28 28 28 30 30 27 24 25 29 29 28 27 29 31 32 29 27 27 27 24 20 18 17 15 14 14 12 12 12 13 17
43 43 43 44 44 43 44 45 42 37 35 35 35 35 34 31 27 24 28 31 32 32 32 32 31 30 29 27 27 25 24 24 27 28 27 28 30 29 26 24 25 28 28 27 26 28 30 29 28 27 26 24 21 20 18 15 15 15 13 10 10 13 18
44 44 45 45 44 43 44 43 39 35 35 36 36 34 30 25 22 20 24 29 30 31 31 31 32 31 29 28 27 25 23 24 26 28 28 26 27 29 30 29 26 25 26 27 27 26 26 26 26 25 24 23 22 20 19 16 16 16 14 10 6 7 12
45 45 44 43 42 42 42 40 36 35 35 34 32 30 26 21 18 18 22 26 28 29 31 31 32 32 30 30 29 26 24 25 26 26 27 27 27 27 29 31 31 27 24 25 27 27 25 23 23 23 23 23 23 22 21 19 19 18 15 11 8 6 9
43 41 42 42 43 41 38 36 36 35 33 30 28 27 24 18 15 17 20 23 25 27 28 29 29 29 29 30 29 26 25 26 27 26 26 27 26 25 27 30 31 29 25 24 26 27 25 23 24 24 23 23 23 22 22 23 24 22 17 14 12 11 7
41 40 40 43 43 37 32 33 35 34 30 26 25 25 22 16 14 17 20 22 23 24 25 25 26 27 27 28 27 27 27 27 27 28 27 25 24 26 29 29 27 26 26 25 25 26 24 21 21 23 24 25 25 24 24 24 24 24 23 19 17 13 10
41 39 39 41 39 32 30 33 34 31 27 24 23 24 22 17 13 16 20 22 23 23 23 24 25 26 27 27 27 27 28 28 27 29 29 26 27 29 28 23 22 24 26 25 25 26 27 25 22 22 24 26 27 28 27 26 25 25 25 24 21 17 14
39 37 37 38 35 30 30 31 30 27 25 23 23 23 22 18 13 14 19 21 20 20 21 23 25 26 26 27 27 28 28 28 27 28 29 29 30 30 25 22 22 23 24 25 25 24 26 27 26 24 24 24 24 24 25 25 25 25 26 26 25 21 17
37 36 35 33 31 29 29 28 27 26 24 22 22 22 21 19 15 13 18 21 19 19 21 22 23 24 23 24 26 27 27 27 28 28 28 29 29 28 27 25 23 22 23 24 24 22 22 23 25 25 24 24 24 24 24 24 23 23 24 25 25 24 21
34 33 29 28 29 29 28 26 24 25 24 22 21 21 20 19 17 15 15 20 22 22 22 23 22 21 21 22 24 26 27 28 29 29 29 28 27 27 28 27 23 21 22 22 21 20 20 20 22 24 24 25 27 27 26 25 24 23 23 23 23 23 21
31 29 25 24 26 28 27 24 22 23 23 22 21 21 20 19 18 17 14 16 23 26 24 23 22 21 21 23 25 26 26 26 27 29 29 27 27 27 27 27 25 22 21 20 19 19 19 19 21 22 24 26 26 24 23 23 21 20 20 21 21 20 20
28 26 24 23 24 26 25 23 21 21 22 22 21 20 20 19 18 17 16 13 18 24 24 22 21 21 22 24 24 24 23 24 25 27 28 27 27 27 26 27 26 22 20 19 19 18 18 19 21 22 23 23 21 20 20 20 18 18 19 20 20 19 19
26 25 23 22 24 25 23 21 20 19 20 20 20 20 20 20 19 18 16 13 12 18 22 20 19 20 20 20 21 22 22 23 23 24 25 25 25 26 26 26 27 26 22 19 19 19 19 20 20 20 19 19 19 19 19 18 18 18 19 19 20 20 19
27 25 24 24 25 23 19 18 18 19 19 19 19 19 19 19 19 18 17 14 10 12 19 20 18 17 17 17 17 18 19 21 21 21 22 22 22 24 25 26 28 27 25 22 21 20 20 19 19 19 18 18 19 18 17 17 18 18 17 16 18 18 17
30 28 27 26 24 20 15 15 19 21 19 16 17 17 17 17 17 16 16 16 11 9 14 18 16 16 15 13 13 13 15 17 19 19 20 21 21 22 23 24 25 25 23 23 22 21 20 19 19 20 20 18 18 18 17 17 18 17 16 15 16 16 15
33 31 30 29 27 21 18 20 23 22 17 15 14 15 16 16 15 13 12 13 13 12 13 16 15 14 12 11 11 11 11 13 16 17 18 18 19 21 20 20 21 23 23 22 21 21 21 21 21 21 20 19 17 17 17 17 17 16 16 15 14 13 11
35 35 36 35 34 29 22 22 24 22 18 17 16 14 14 15 15 15 13 11 13 13 12 12 12 11 11 11 10 10 11 13 13 15 16 16 17 19 20 20 20 22 24 23 21 19 18 18 18 19 20 20 19 17 17 18 17 16 15 13 11 10 10
35 38 40 39 39 40 30 19 18 18 17 15 13 11 11 11 12 13 12 12 14 12 9 9 9 8 9 9 10 11 12 10 10 15 17 17 16 16 19 22 21 21 23 24 22 19 17 15 15 15 17 18 17 16 16 16 16 17 17 13 10 11 11
38 39 40 39 41 44 34 14 11 15 15 13 13 13 13 11 11 11 11 14 14 11 8 9 9 9 11 12 11 10 9 9 14 16 16 18 18 17 19 20 19 17 17 18 17 16 14 12 12 12 13 14 13 12 12 12 12 13 14 13 12 12 11
41 40 39 38 39 43 37 22 10 8 8 7 9 9 4 2 2 4 10 15 15 11 10 11 11 10 10 10 8 8 12 15 16 16 17 18 18 18 18 17 14 12 11 11 12 12 11 11 12 12 13 13 12 11 11 10 11 11 11 12 14 14 14
36 36 36 35 35 38 38 33 26 24 23 20 15 13 17 18 18 15 14 13 10 7 6 8 9 9 10 12 12 13 16 18 17 16 16 16 16 16 15 14 13 12 11 12 13 13 13 13 12 11 11 11 11 11 12 12 14 14 12 10 10 13 15
31 33 34 37 38 36 36 35 32 30 30 30 27 25 25 23 19 18 18 17 15 15 15 14 13 12 12 13 13 14 15 15 15 14 13 13 14 14 14 14 14 14 14 14 14 13 13 12 11 10 10 10 11 12 13 14 14 15 13 9 6 6 9
Wind_Direction
280 271 267 266 266 264 261 258 257 260 260 255 252 252 252 253 251 249 248 248 247 245 243 242 241 241 240 239 239 239 239 239 237 235 235 235 233 230 227 224 219 225 251 250 245 247 254 260 266 271 275 281 284 287 291 291 293 295 293 292 290 287 286
302 289 280 275 271 268 262 258 259 261 258 253 251 252 252 253 252 249 248 246 245 244 243 242 241 241 240 238 238 239 238 238 236 234 233 233 232 231 228 225 224 226 240 254 251 249 256 261 262 268 274 280 285 288 292 291 290 293 292 291 292 291 289
318 307 294 284 275 269 263 259 260 259 256 252 251 251 253 253 252 250 248 246 245 244 242 241 241 241 240 238 237 238 238 237 235 232 231 230 230 230 229 227 226 227 232 248 254 251 255 258 258 263 271 279 284 287 289 288 289 291 290 289 290 290 291
316 313 307 297 285 275 267 263 261 259 257 254 253 253 255 256 253 250 248 246 244 243 241 240 240 240 239 237 236 236 236 235 234 231 229 228 228 228 229 228 227 228 231 242 253 252 252 256 258 263 270 277 281 282 285 287 290 292 290 291 292 292 292
309 307 305 302 295 285 275 269 265 262 259 257 255 256 258 257 254 251 249 247 245 242 240 239 240 240 238 235 234 234 233 232 231 230 228 227 226 226 227 228 227 229 232 238 247 252 253 255 257 264 269 272 276 283 288 289 290 294 295 295 297 297 297
308 304 301 298 295 289 282 276 270 264 261 259 258 259 259 258 254 251 249 246 244 242 240 239 239 239 237 235 233 232 231 230 228 228 227 226 225 225 226 227 228 230 232 237 244 248 250 251 253 260 267 269 274 281 287 290 292 295 297 296 297 301 304
310 307 303 299 294 289 284 280 274 267 263 262 261 259 258 257 253 251 249 246 244 241 239 239 238 238 237 234 233 232 231 229 227 227 228 227 226 223 223 225 227 229 231 234 239 242 243 246 251 257 263 268 275 280 280 283 287 291 297 300 298 301 306
311 309 305 301 297 292 287 281 275 269 264 262 261 259 257 256 253 251 247 244 243 240 238 238 237 237 236 234 234 233 231 229 227 227 228 228 228 226 224 224 225 226 228 229 231 235 237 241 248 253 258 264 269 271 271 275 280 287 296 304 303 301 302
310 308 305 302 300 295 291 285 279 272 265 260 259 258 257 256 253 250 246 243 241 238 237 236 236 236 236 235 235 234 233 231 228 227 229 228 227 227 226 226 226 224 223 223 226 231 233 235 240 246 252 256 254 253 263 276 282 284 292 304 308 305 304
309 307 304 302 300 297 292 287 283 277 269 263 261 260 258 256 252 248 244 240 238 237 235 234 234 234 235 234 233 232 231 229 228 229 230 230 229 228 226 225 226 225 222 221 224 227 227 227 235 239 242 247 250 253 262 273 276 278 292 307 309 309 316
309 307 305 302 300 297 293 289 285 280 274 269 265 262 259 255 249 244 240 236 235 234 233 232 232 232 232 231 230 229 227 225 228 230 230 231 231 229 227 225 224 224 223 222 225 227 223 222 232 238 239 243 249 253 258 265 270 273 288 302 305 309 321
309 306 305 302 298 295 293 292 289 284 280 276 270 266 262 257 248 240 235 232 231 231 230 229 229 229 229 228 227 227 227 227 231 233 234 236 235 231 229 227 226 226 224 222 223 224 222 223 230 235 238 240 243 247 251 257 264 266 272 281 283 281 292
308 306 304 302 299 297 294 292 290 288 284 278 273 268 265 261 251 237 230 227 226 226 226 225 225 225 225 226 227 228 229 230 233 236 239 241 242 237 232 230 229 228 228 226 224 223 224 226 227 230 237 239 238 241 246 249 255 258 259 263 270 278 291
308 306 305 303 301 299 296 294 293 291 286 279 274 271 268 265 255 238 227 223 221 222 222 222 223 222 223 224 226 227 229 231 234 236 238 241 245 244 236 231 231 230 229 228 225 226 230 230 228 231 239 242 239 237 239 242 247 250 252 259 267 283 293
306 305 303 302 300 298 296 295 295 293 289 285 283 279 274 268 259 239 223 218 219 219 220 221 221 221 221 222 224 225 225 228 231 234 236 237 243 247 241 232 229 229 229 228 226 228 232 234 234 237 242 245 242 239 241 243 248 252 256 266 274 284 291
305 303 302 301 299 297 295 294 294 294 292 290 288 285 278 270 259 237 217 213 215 216 216 218 219 220 220 220 221 221 221 225 229 231 233 235 238 243 245 240 231 229 230 230 229 231 233 235 239 241 243 244 240 241 245 245 250 255 254 261 277 285 290
305 303 302 301 299 297 295 295 296 297 294 291 287 284 280 270 254 231 211 207 210 212 213 216 218 218 217 217 218 217 217 225 231 229 228 230 233 237 240 242 239 234 232 231 230 231 232 233 237 238 238 238 235 238 244 239 238 244 240 243 268 282 285
305 304 303 301 299 298 295 295 300 300 294 289 285 283 280 268 246 221 204 202 205 208 211 214 217 217 216 216 216 215 217 225 233 233 227 222 225 230 233 236 237 236 236 235 232 232 231 229 231 232 231 231 232 234 235 231 231 235 232 228 237 249 274
306 304 304 303 300 297 294 296 301 300 294 289 287 285 283 269 236 207 195 194 198 204 210 213 213 213 213 215 215 216 221 227 231 234 230 219 215 221 227 230 231 230 233 235 233 233 233 228 228 229 227 228 232 232 229 229 233 234 226 222 229 233 250
306 304 304 305 302 297 297 301 302 298 292 290 288 287 286 272 231 200 189 187 193 202 208 209 210 210 212 215 216 217 224 230 230 230 230 223 213 217 225 228 227 227 228 231 230 230 233 233 231 231 228 228 232 232 230 230 233 234 229 225 228 225 218
307 305 305 306 304 301 303 306 302 295 291 291 289 288 287 276 238 201 188 188 195 203 204 203 206 209 213 217 220 223 226 231 233 230 228 225 221 223 226 224 223 225 225 226 227 227 230 234 236 234 231 229 229 230 231 232 233 236 235 230 230 225 218
307 307 307 307 306 304 306 306 301 294 290 289 289 288 288 282 255 213 195 191 195 200 201 202 206 211 214 217 223 229 229 230 233 231 228 228 228 228 226 220 219 220 219 220 221 220 223 228 231 233 232 231 229 228 230 232 232 235 237 236 236 235 232
310 309 307 305 305 305 306 303 298 292 289 288 288 286 287 287 276 242 213 201 197 197 197 199 203 206 210 214 220 227 231 233 235 234 232 231 229 227 223 218 215 212 211 215 216 213 216 220 222 226 229 230 232 232 232 234 236 236 237 236 237 240 242
309 307 303 304 307 307 306 301 296 290 287 286 285 284 284 285 284 274 241 213 206 208 205 203 203 203 206 215 225 231 235 240 242 239 235 232 229 226 220 213 209 207 205 207 208 208 210 213 214 217 221 226 230 232 233 235 237 237 238 236 236 238 242
308 306 304 306 307 305 303 300 294 289 285 282 280 282 284 282 281 284 270 227 212 214 215 211 209 211 217 226 234 238 239 241 242 240 238 233 227 224 217 207 205 206 200 197 203 205 205 208 211 214 219 224 226 226 227 230 231 231 235 237 236 236 240
309 308 307 304 300 299 298 296 292 287 283 280 277 277 280 282 280 281 282 259 223 214 214 211 210 217 227 233 235 238 239 239 238 239 240 237 230 224 215 203 201 205 199 194 200 203 202 205 210 213 217 220 218 218 222 224 222 220 223 227 228 229 233
309 306 302 298 295 294 293 291 289 285 280 276 274 273 274 277 278 277 278 275 244 214 207 207 211 220 230 233 232 233 237 239 239 236 235 235 232 227 218 205 202 205 205 201 200 201 203 207 209 209 210 209 209 214 221 220 214 210 212 216 219 221 225
305 300 296 293 291 291 289 285 283 283 280 274 269 270 271 270 271 271 264 261 255 217 202 203 209 218 228 233 234 233 235 239 241 239 232 228 226 225 222 215 208 207 207 207 206 203 202 202 200 199 200 202 205 210 213 210 206 206 209 211 210 210 216
306 303 302 302 299 290 278 274 279 283 284 277 265 261 262 263 267 270 259 247 244 222 198 194 202 214 221 229 235 236 237 237 236 234 230 222 215 215 218 216 213 209 207 207 206 202 198 195 191 189 192 194 198 203 204 202 201 205 209 206 203 206 211
322 324 326 329 324 308 279 270 280 286 285 283 274 260 252 251 252 257 255 240 232 225 204 190 196 211 215 221 232 236 242 245 235 224 217 211 206 208 209 207 206 205 199 195 192 191 193 192 186 183 183 184 185 190 192 192 195 203 207 202 199 204 208
337 341 344 345 342 333 308 278 274 277 277 284 291 277 259 251 241 238 238 222 213 221 213 190 190 204 210 217 227 235 248 250 225 197 186 183 187 194 192 184 179 178 174 168 162 161 165 169 169 170 173 174 175 178 183 189 193 196 197 200 205 211 213
346 349 351 350 347 345 336 302 274 277 279 284 294 284 268 260 246 235 224 202 199 211 210 189 188 199 209 218 229 241 248 232 171 151 153 153 151 156 161 159 157 157 157 154 150 148 146 145 147 149 154 160 165 170 178 187 191 188 186 193 210 218 218
351 352 353 350 347 349 351 337 286 290 289 278 278 278 276 277 263 238 206 183 186 196 197 193 199 211 220 227 231 230 216 168 137 134 141 143 139 137 142 148 150 151 150 149 150 153 153 155 157 157 159 164 170 176 184 190 192 190 188 191 200 210 215
349 351 352 349 346 351 1 13 14 352 336 306 283 273 279 6 29 180 169 166 175 189 199 200 201 201 199 196 185 157 137 129 127 130 133 135 137 138 139 143 149 153 154 155 158 163 168 173 174 172 172 176 181 190 201 210 214 214 207 198 196 200 208
342 346 349 349 350 355 4 14 27 40 44 43 52 81 93 83 71 70 85 104 119 130 140 148 147 139 134 133 128 120 118 120 125 130 133 134 138 141 144 150 159 166 172 173 170 169 171 173 176 178 180 185 192 198 205 212 216 217 216 211 201 197 202
340 343 348 354 -0 3 6 10 20 33 41 42 50 67 79 75 64 59 62 66 68 72 79 86 93 101 108 116 120 120 122 127 132 137 143 149 152 154 157 161 164 166 170 170 168 167 168 172 180 188 194 198 203 206 209 212 212 210 212 219 225 217 207